Temperature
15 15 15 14 14 14 14 14 14 14 14 14 14 13 13 13 13 13 13 13 13 13 13 13 13 12 13 13 12 12 12 12 12 12 12 12 13 13 13 12 12 12 12
15 15 15 14 14 14 14 14 14 14 13 13 13 13 13 13 13 13 13 13 13 13 12 12 12 12 12 12 12 12 12 12 12 12 12 12 12 12 12 12 12 12 12
15 15 14 14 14 14 14 13 13 13 13 13 13 13 13 13 13 13 13 13 13 12 12 12 12 12 12 12 12 12 12 12 12 12 12 12 12 12 12 12 12 11 11
15 14 14 14 14 14 14 13 13 13 13 13 13 13 13 13 13 13 12 12 12 12 12 12 12 12 12 12 12 12 12 11 11 11 11 11 11 11 11 11 11 11 11
14 14 14 14 14 14 13 13 13 13 13 13 13 13 13 12 12 12 12 12 12 12 12 12 12 11 11 12 11 11 11 11 11 11 11 11 11 11 11 11 11 11 11
14 14 14 14 14 13 13 13 13 13 12 12 12 12 12 12 12 12 12 12 12 12 12 12 11 11 11 11 11 11 11 11 11 11 11 10 11 11 11 10 10 10 10
14 13 13 13 13 13 13 13 13 12 12 12 12 12 12 12 12 12 12 12 11 11 11 11 11 11 11 11 11 11 11 11 11 11 10 10 10 10 11 10 10 10 10
13 13 13 13 13 13 12 12 12 12 12 12 12 12 12 12 12 12 12 11 11 11 11 11 11 11 11 11 11 11 11 11 10 10 10 10 10 10 10 10 10 10 10
13 13 13 13 13 12 12 12 12 12 12 12 12 12 12 12 12 12 11 11 11 11 11 11 11 11 11 11 10 10 10 10 10 10 10 10 10 10 10 10 10 10 9
13 13 13 13 13 12 12 12 12 12 12 12 12 12 12 12 12 11 11 11 11 11 11 11 11 11 11 10 10 10 10 10 10 10 10 10 10 10 10 9 9 9 9
12 12 12 12 12 12 12 12 12 12 12 12 12 12 12 12 12 11 11 11 11 11 11 11 11 10 10 10 10 10 10 10 10 10 10 10 10 9 9 9 9 9 9
12 12 12 12 12 12 12 12 12 11 11 11 12 12 12 12 12 11 11 11 11 11 11 10 10 10 10 10 10 10 10 10 10 10 10 10 9 9 9 9 9 9 9
12 12 12 12 12 12 12 12 12 11 11 11 12 12 12 12 12 11 11 11 11 11 10 10 10 10 10 10 10 10 10 10 10 10 9 9 9 9 9 9 9 9 9
12 12 12 12 12 12 12 12 12 12 11 11 11 12 12 12 12 11 11 11 11 10 10 10 10 10 10 10 10 10 10 9 9 9 9 9 9 9 9 8 8 8 8
12 12 12 12 12 12 12 12 12 12 12 12 12 12 12 12 12 11 11 11 11 10 10 10 10 10 10 10 10 9 9 9 9 9 9 9 9 8 8 8 8 8 8
11 12 12 12 11 11 11 11 11 11 12 12 12 12 12 12 11 11 11 11 11 10 10 10 10 10 10 10 10 9 9 9 9 9 9 8 8 8 8 8 8 8 8
11 11 11 11 11 11 11 11 11 11 11 11 11 11 12 11 11 11 11 11 11 10 10 10 10 10 10 10 9 9 9 9 9 9 8 8 8 8 8 8 8 8 7
11 11 11 11 11 11 11 11 11 11 11 11 11 11 11 11 11 11 11 11 10 10 10 10 10 10 10 10 9 9 9 9 9 8 8 8 8 8 8 8 8 7 7
11 11 11 11 11 11 11 11 11 11 11 11 11 11 11 11 11 11 11 11 11 10 10 10 10 10 9 9 9 9 9 9 8 8 8 8 8 8 8 8 7 7 7
11 11 11 11 11 11 11 11 11 11 11 11 11 11 11 11 11 11 10 10 10 10 10 10 10 9 9 9 9 8 8 8 8 8 8 8 8 8 8 7 7 7 7
11 11 11 11 11 11 11 11 11 11 11 11 11 11 11 11 11 11 10 10 10 10 10 10 9 9 9 9 8 8 8 8 8 8 8 8 8 8 7 7 7 7 7
11 11 11 11 11 11 11 11 11 11 11 11 11 11 11 11 11 11 10 10 10 10 9 9 9 9 9 8 8 8 8 8 8 8 8 8 7 7 7 7 7 7 7
10 10 10 10 10 10 10 11 11 11 11 11 11 11 11 11 10 10 10 10 10 9 9 9 9 8 8 8 8 8 8 8 8 8 7 7 7 7 7 7 7 7 7
10 10 10 10 10 10 10 10 10 10 10 10 10 11 10 10 10 10 10 9 9 9 9 9 8 8 8 8 8 8 8 7 7 7 7 7 7 7 7 7 7 7 6
10 10 10 10 10 10 10 10 10 10 10 10 10 10 10 10 10 9 9 9 9 9 9 8 8 8 8 8 8 8 8 7 7 7 7 7 7 7 7 6 6 6 6
10 10 10 10 10 10 10 10 10 10 10 10 10 9 9 9 9 9 9 9 9 8 8 8 8 8 8 8 8 8 7 7 7 7 7 7 7 7 6 6 6 6 5
Wind_Speed
4 3 3 2 1 1 1 2 2 1 1 2 2 2 2 2 2 2 2 3 3 2 2 2 1 1 1 1 2 3 3 3 3 1 0 0 0 1 1 1 0 1 1
5 4 3 2 2 1 1 1 1 1 2 2 2 2 2 2 2 3 3 3 3 3 2 2 2 2 2 2 2 3 3 3 3 2 0 0 0 0 1 1 1 1 1
5 4 3 3 2 2 2 1 1 1 2 2 2 2 2 3 3 3 3 3 3 3 3 3 2 2 2 2 2 2 2 3 3 3 1 1 0 0 1 1 2 2 1
5 5 4 4 3 3 2 1 1 1 2 2 2 2 2 3 3 2 2 2 2 2 2 2 2 3 3 3 2 3 3 3 3 3 1 1 0 0 1 1 1 1 1
4 5 5 4 3 2 2 1 1 1 2 2 2 2 2 3 2 2 2 2 2 2 1 1 1 2 3 3 3 3 4 3 3 2 2 1 1 0 1 0 1 1 1
4 4 4 3 3 2 2 2 2 1 1 2 2 3 2 2 2 4 3 2 2 2 1 0 0 1 1 2 4 4 5 5 4 3 2 2 2 2 1 1 1 1 1
4 3 3 3 3 2 2 2 2 1 1 2 2 2 2 1 3 3 3 3 2 2 1 1 1 1 1 1 2 3 2 3 5 5 4 4 3 4 3 2 2 2 2
3 3 3 3 3 3 2 2 2 1 2 2 1 1 2 2 3 4 4 3 2 2 2 2 1 0 1 2 2 2 1 1 2 3 4 4 4 4 4 3 3 2 2
3 4 3 3 4 4 3 3 2 2 1 2 2 2 2 1 2 4 5 3 2 1 1 1 1 1 0 3 3 2 1 1 1 2 2 2 3 4 4 3 2 1 2
4 4 4 4 4 5 4 3 2 2 2 2 2 1 2 2 2 4 4 3 2 1 1 1 1 1 1 2 2 3 2 2 0 1 1 1 1 2 3 3 3 2 2
3 3 3 4 4 4 4 3 3 3 3 2 2 1 1 2 3 4 4 3 2 2 1 0 0 0 1 1 1 2 3 2 1 1 0 0 1 0 1 2 3 3 3
2 3 3 3 3 3 4 3 3 4 3 2 2 1 1 1 2 3 4 4 4 3 2 1 0 1 1 1 1 1 2 2 2 1 1 0 1 1 2 2 3 4 4
2 3 3 3 2 3 4 4 4 4 3 3 3 2 1 1 1 2 3 3 4 2 1 1 2 2 1 1 1 1 1 2 2 1 1 1 2 2 1 1 1 1 2
2 3 3 3 3 2 3 3 4 4 4 3 3 3 2 2 1 1 2 2 2 2 1 2 2 3 2 2 1 1 1 1 2 1 1 1 1 1 1 1 1 1 1
2 2 3 3 3 3 2 3 4 4 5 5 5 5 4 4 4 5 4 3 2 2 2 2 2 2 1 1 1 1 1 1 1 1 1 0 1 1 1 1 1 1 2
2 2 2 3 3 3 3 1 2 3 4 5 6 6 5 5 4 6 6 5 5 6 4 2 1 1 1 1 1 0 0 1 1 1 1 1 1 1 2 1 1 1 2
2 2 2 3 4 4 4 3 2 1 1 3 4 4 5 4 5 6 6 6 5 6 3 2 2 2 2 2 2 2 1 1 1 1 1 2 2 2 2 2 2 2 3
2 2 2 2 4 4 4 4 4 4 3 1 1 2 3 4 4 5 7 6 3 2 2 3 3 3 2 2 2 2 2 1 1 1 2 2 2 2 2 2 2 3 3
2 2 2 2 3 4 4 4 4 4 4 2 1 1 2 4 5 5 7 4 3 3 3 2 2 2 2 2 2 2 2 2 2 2 2 2 2 2 3 3 3 3 3
2 2 2 2 2 3 3 4 4 4 4 3 3 3 3 3 2 3 3 3 3 3 3 3 2 2 2 2 2 2 2 2 2 2 2 2 2 3 3 3 3 3 3
2 2 2 2 2 3 3 4 4 4 4 4 4 4 6 4 4 4 4 3 4 4 3 3 3 2 2 2 2 2 2 2 2 2 3 3 3 3 3 3 3 3 3
2 2 2 2 2 2 3 3 4 4 4 4 3 2 5 4 3 3 3 3 3 3 3 3 3 2 3 3 3 3 3 3 3 3 3 3 3 3 2 2 2 3 3
2 2 2 2 2 3 2 2 3 3 3 3 3 3 3 3 3 3 3 3 3 3 3 3 3 2 2 3 3 3 4 4 4 4 3 3 3 3 2 3 3 3 3
2 2 3 2 2 2 2 2 2 3 3 2 2 3 3 3 3 3 3 3 3 2 2 3 3 4 4 3 3 4 4 5 5 5 5 4 4 3 3 3 3 3 3
1 1 2 2 2 2 2 2 2 2 2 3 3 3 3 3 3 3 3 3 3 3 3 3 3 3 4 4 3 4 4 5 5 5 4 4 4 3 3 3 3 3 3
0 1 1 1 2 2 2 2 3 3 3 3 3 3 3 3 3 3 3 3 3 3 3 3 3 3 3 3 4 4 4 4 4 4 4 3 3 3 3 3 3 3 3
Wind_Direction
173 165 152 162 161 149 196 219 216 207 197 197 193 185 186 180 166 152 156 156 152 157 164 166 189 174 168 178 171 163 168 173 197 226 208 43 92 93 53 57 76 196 210
179 165 159 158 159 175 217 241 219 211 209 206 195 186 188 179 169 165 170 164 164 175 187 185 209 188 176 183 169 173 180 183 182 201 205 73 64 129 77 77 46 50 15
176 169 167 172 181 204 221 232 234 212 204 193 178 176 178 170 162 164 163 162 170 182 184 188 205 182 189 190 177 175 174 166 161 168 185 141 88 52 77 62 43 29 22
177 178 186 198 205 210 210 204 211 202 182 175 172 171 166 156 146 150 154 158 158 159 166 182 192 192 197 190 180 177 161 146 142 148 159 143 125 32 127 109 40 19 342
179 189 199 201 205 196 179 171 151 157 169 165 153 147 144 146 150 148 147 150 149 138 133 157 187 180 180 181 180 176 162 152 149 155 172 191 223 211 218 204 208 326 314
192 203 204 190 192 184 170 157 132 117 133 137 142 138 136 154 133 126 128 135 138 140 147 140 119 154 151 143 143 150 158 167 173 176 189 203 223 227 217 223 226 258 274
199 201 197 185 186 185 168 138 134 128 123 123 136 143 152 134 125 131 123 130 136 141 145 129 104 58 90 130 127 128 146 177 179 178 186 209 215 217 201 218 228 237 252
199 195 198 182 178 169 161 156 147 143 151 152 143 138 131 113 114 130 127 120 119 121 126 136 144 92 107 135 131 126 133 235 214 195 201 213 218 210 203 203 205 226 275
215 207 201 189 180 177 180 179 167 161 149 143 155 138 134 132 128 137 128 124 113 99 96 109 136 140 111 138 142 150 165 303 331 167 190 201 202 197 179 162 174 197 275
226 219 205 192 184 187 187 178 169 168 163 150 140 155 165 152 140 137 132 138 131 114 68 60 86 123 123 134 158 166 192 240 225 56 54 46 180 193 192 201 201 207 249
223 210 202 196 192 185 181 174 164 162 157 156 163 179 175 165 160 156 154 148 158 151 140 12 340 123 139 140 161 195 212 203 172 155 103 13 5 286 238 225 215 214 229
202 197 197 193 195 179 165 170 167 164 164 170 165 161 168 178 177 185 175 167 158 158 181 208 200 121 114 103 155 212 195 162 142 134 130 279 290 280 272 260 241 237 241
200 197 194 187 185 173 174 177 174 173 177 185 181 186 208 204 203 205 192 183 166 157 169 162 134 119 109 79 67 88 122 128 132 133 176 256 269 269 279 299 309 281 280
197 198 186 174 175 173 174 177 177 182 183 187 188 196 208 206 205 196 192 189 179 152 117 99 88 82 89 86 71 82 107 140 151 165 207 258 280 287 282 288 294 303 302
195 190 178 175 173 179 181 193 194 197 193 191 196 193 194 210 217 190 175 180 179 168 129 94 80 71 67 60 63 67 87 112 144 190 197 241 277 276 286 291 278 280 278
178 176 174 186 185 180 177 192 200 190 191 199 201 195 208 210 187 176 180 171 156 146 133 134 167 185 197 212 214 247 237 228 233 227 227 242 260 273 284 291 286 271 277
182 183 176 185 184 185 189 190 197 199 163 185 190 189 198 188 175 174 173 161 148 144 147 186 209 218 220 220 217 216 239 249 240 230 238 252 260 269 278 277 271 271 274
178 180 167 183 189 188 191 196 194 195 207 235 219 187 178 168 157 150 146 133 131 155 193 210 222 226 226 224 222 216 223 234 231 239 245 253 253 258 267 271 269 270 272
181 191 180 182 191 191 192 194 197 201 205 202 177 137 139 127 121 132 142 157 179 201 213 221 226 228 233 232 226 220 218 231 243 242 251 256 254 254 261 266 269 270 273
195 198 182 186 190 193 194 196 201 203 205 206 203 191 155 134 140 154 173 188 197 211 217 221 227 223 223 229 230 226 228 241 252 259 263 257 252 250 255 263 268 274 276
187 195 188 186 201 205 203 204 205 199 204 210 213 197 176 177 187 191 196 202 207 213 216 218 221 226 229 228 231 239 242 253 259 264 265 260 254 252 256 257 261 269 279
180 184 186 192 203 209 215 211 201 193 193 201 210 188 173 176 186 191 198 208 213 215 212 209 216 224 226 224 228 235 243 250 255 258 263 264 258 256 258 262 271 276 279
181 184 190 198 205 215 220 213 195 188 188 194 191 179 179 191 197 200 204 210 211 213 214 211 222 239 243 231 226 227 237 247 248 243 245 255 259 256 252 257 267 279 284
195 191 194 195 196 206 210 214 202 191 184 189 186 184 189 196 203 207 207 208 212 220 222 224 227 236 244 242 241 240 244 249 246 236 233 240 247 251 250 256 263 271 275
228 206 205 204 199 203 200 206 200 194 194 196 195 196 201 204 208 213 212 206 209 218 225 228 232 236 240 243 248 255 262 257 250 248 238 232 238 242 248 255 263 273 275
317 224 199 196 201 204 201 204 204 202 206 207 204 206 211 211 211 213 217 214 215 219 226 230 235 234 238 242 256 266 269 265 260 250 235 228 232 238 243 251 264 267 272
Height
1492 1493 1494 1495 1496 1497 1497 1497 1498 1498 1499 1499 1500 1500 1500 1500 1501 1502 1503 1504 1505 1506 1507 1507 1508 1508 1508 1509 1509 1510 1511 1513 1513 1514 1515 1516 1517 1518 1519 1520 1520 1520 1521
1490 1491 1492 1493 1494 1494 1495 1495 1495 1496 1496 1497 1498 1498 1498 1499 1499 1500 1501 1502 1503 1503 1504 1505 1505 1506 1506 1506 1507 1508 1509 1510 1511 1512 1512 1514 1515 1516 1517 1517 1518 1518 1518
1487 1488 1489 1491 1491 1492 1492 1492 1492 1493 1494 1495 1495 1496 1496 1497 1497 1498 1499 1500 1501 1501 1502 1503 1503 1504 1504 1504 1505 1506 1506 1508 1509 1510 1510 1511 1513 1514 1514 1515 1515 1516 1516
1485 1486 1487 1488 1489 1489 1490 1490 1490 1490 1491 1492 1493 1494 1494 1495 1496 1497 1498 1498 1499 1499 1500 1501 1501 1502 1502 1503 1503 1504 1505 1506 1507 1508 1509 1509 1510 1511 1512 1512 1512 1513 1513
1482 1483 1484 1485 1486 1487 1488 1488 1488 1488 1489 1490 1491 1492 1492 1493 1494 1495 1496 1496 1497 1497 1498 1498 1499 1500 1501 1501 1502 1502 1503 1504 1505 1506 1507 1508 1508 1509 1509 1509 1510 1510 1510
1480 1481 1482 1483 1484 1485 1485 1486 1486 1487 1487 1488 1489 1490 1491 1492 1493 1494 1494 1495 1495 1496 1496 1497 1497 1498 1499 1500 1500 1501 1502 1503 1503 1504 1505 1505 1506 1507 1507 1507 1507 1507 1507
1477 1479 1480 1481 1482 1483 1484 1484 1485 1485 1486 1487 1488 1489 1490 1490 1492 1493 1493 1494 1494 1494 1495 1495 1496 1497 1497 1498 1498 1499 1500 1501 1502 1503 1503 1503 1504 1504 1504 1505 1505 1505 1505
1475 1476 1478 1479 1480 1482 1483 1483 1483 1484 1485 1485 1487 1488 1489 1490 1491 1492 1493 1493 1493 1493 1494 1494 1495 1495 1496 1496 1497 1498 1499 1499 1500 1501 1501 1502 1502 1502 1503 1503 1503 1502 1502
1472 1474 1475 1477 1478 1480 1481 1481 1482 1483 1484 1485 1486 1487 1488 1489 1490 1491 1492 1492 1492 1492 1493 1493 1493 1494 1494 1495 1495 1496 1496 1497 1498 1499 1499 1500 1500 1500 1501 1501 1500 1500 1499
1470 1472 1473 1475 1476 1477 1479 1480 1481 1482 1483 1484 1485 1486 1487 1488 1489 1490 1491 1491 1491 1491 1492 1492 1492 1493 1493 1493 1494 1494 1494 1495 1496 1496 1497 1497 1498 1498 1498 1498 1498 1498 1497
1468 1470 1471 1473 1474 1476 1477 1479 1480 1482 1483 1483 1484 1485 1486 1487 1488 1489 1490 1490 1490 1490 1490 1491 1491 1491 1492 1492 1493 1493 1493 1494 1494 1495 1495 1495 1495 1495 1496 1496 1496 1495 1495
1466 1468 1469 1471 1472 1474 1476 1477 1478 1480 1481 1482 1483 1484 1485 1486 1487 1488 1489 1490 1490 1490 1490 1490 1490 1490 1491 1491 1491 1492 1492 1492 1492 1492 1493 1493 1493 1493 1493 1493 1493 1492 1492
1464 1465 1467 1469 1470 1472 1473 1475 1477 1478 1479 1481 1482 1483 1484 1486 1487 1487 1488 1489 1489 1489 1489 1489 1489 1490 1490 1490 1490 1490 1490 1490 1490 1490 1490 1491 1491 1491 1491 1490 1490 1490 1489
1462 1463 1465 1466 1468 1470 1472 1473 1475 1476 1478 1479 1481 1482 1483 1484 1485 1486 1487 1487 1488 1488 1488 1488 1488 1488 1488 1488 1489 1489 1489 1489 1489 1489 1489 1489 1489 1489 1488 1488 1487 1487 1486
1460 1461 1462 1464 1466 1468 1470 1471 1473 1475 1476 1478 1479 1480 1481 1482 1484 1485 1485 1486 1486 1487 1487 1487 1487 1487 1487 1487 1487 1487 1487 1487 1487 1487 1487 1487 1487 1486 1486 1485 1484 1484 1483
1458 1459 1460 1462 1464 1466 1468 1470 1472 1473 1475 1477 1478 1479 1480 1482 1483 1483 1484 1485 1485 1486 1486 1485 1485 1485 1485 1485 1485 1485 1486 1486 1486 1486 1485 1485 1485 1484 1483 1483 1482 1481 1480
1456 1457 1459 1461 1463 1464 1466 1468 1469 1471 1473 1475 1476 1477 1479 1480 1481 1482 1483 1483 1484 1484 1484 1483 1483 1483 1483 1484 1484 1484 1484 1484 1484 1484 1483 1483 1483 1482 1481 1480 1479 1479 1478
1456 1457 1457 1459 1461 1463 1465 1466 1468 1469 1470 1472 1474 1475 1476 1478 1479 1480 1481 1482 1482 1482 1482 1482 1482 1482 1482 1482 1482 1482 1482 1482 1482 1482 1481 1481 1480 1480 1479 1478 1477 1476 1475
1455 1456 1457 1458 1459 1461 1463 1465 1466 1468 1468 1470 1472 1473 1475 1476 1477 1478 1479 1479 1479 1479 1480 1480 1480 1480 1480 1480 1480 1480 1480 1480 1480 1479 1479 1478 1478 1477 1476 1475 1474 1474 1473
1454 1455 1456 1457 1458 1460 1461 1463 1464 1465 1467 1468 1469 1471 1472 1473 1474 1475 1476 1477 1477 1477 1477 1478 1478 1478 1478 1478 1478 1478 1478 1478 1477 1477 1476 1476 1475 1474 1473 1473 1472 1471 1470
1453 1454 1455 1456 1456 1458 1459 1460 1462 1463 1464 1465 1467 1469 1470 1471 1472 1473 1473 1474 1474 1475 1475 1475 1475 1475 1475 1475 1475 1475 1475 1475 1475 1474 1474 1473 1472 1471 1470 1469 1469 1468 1466
1451 1452 1453 1454 1455 1456 1457 1459 1460 1461 1462 1463 1465 1467 1468 1469 1469 1470 1471 1471 1472 1472 1473 1473 1473 1473 1473 1472 1472 1472 1471 1471 1471 1471 1470 1470 1469 1468 1467 1466 1465 1464 1463
1450 1450 1451 1452 1453 1454 1455 1456 1457 1458 1460 1461 1462 1464 1465 1466 1466 1467 1468 1469 1469 1470 1470 1470 1470 1470 1470 1470 1469 1469 1468 1468 1468 1467 1467 1466 1465 1465 1464 1463 1462 1461 1460
1448 1448 1449 1450 1451 1452 1453 1454 1455 1456 1457 1459 1460 1461 1462 1463 1464 1464 1465 1466 1466 1467 1467 1467 1467 1467 1467 1467 1467 1466 1466 1465 1464 1464 1463 1463 1462 1461 1460 1459 1458 1457 1457
1447 1447 1447 1448 1449 1450 1451 1451 1452 1453 1455 1456 1457 1458 1459 1460 1461 1462 1462 1463 1463 1463 1464 1464 1464 1463 1463 1463 1463 1463 1462 1462 1461 1460 1459 1459 1458 1457 1456 1456 1455 1454 1453
1446 1446 1446 1447 1447 1448 1448 1449 1450 1451 1452 1453 1454 1455 1456 1457 1457 1458 1459 1459 1459 1460 1460 1460 1460 1460 1460 1460 1459 1459 1459 1458 1457 1456 1456 1455 1454 1453 1453 1452 1451 1450 1450